NOAA 16 DEB

Satellite information

Favourite Embed

Satellite Type and Status

DEBRISIN ORBIT

Key statistics

Satellite NOAA 16 DEB at a glance.

Uptime

9214

Days in orbit

Revolutions

≈ 14.8

Per day

Orbit

SSO

Sun Synchronous Orbit

Inclination

98.9

Latest

Satellite identification and parameters

Extended collection of information and parameters for NOAA 16 DEB.

Object identification

Identified? True

Debris? True

Object name: NOAA 16 DEB

International designator: 2000-055LF

Object number (NORAD): 41426

Object ID (CCSDS): 41426

Country: UNITED STATES OF AMERICA (US)

Current information (Y/N): Y

RCS size: SMALL

Orbital parameters

Period: 97.066 minutes

Inclination: 98.8864 deg

SMA: 6996.369 km

Apoapsis: 628.26 km

Periapsis: 608.208 km

RAAN: 143.4982 deg

Eccentricy: 0.001433

Argument of periapsis: 273.3505 deg

Mean anomaly: 86.6067 deg

Mean motion: 14.83521099 rev/day

Mean motion (dot): 0.00101799 rev/day2

B* drag term: 0.012177733 1/REarth

Two-line elements (TLE)

Creation date: Dec. 12, 2025, 10:14 a.m.

Reference frame: TEME

Reference center: EARTH

Epoch: Dec. 12, 2025, 5:17 a.m. UTC

TLE line 0: 0 NOAA 16 DEB

TLE line 1: 1 41426U 00055LF 25346.22025545 .00101799 00000-0 12178-1 0 9999

TLE line 2: 2 41426 98.8864 143.4982 0014330 273.3505 86.6067 14.83521099509783

Live tracking on map

Real-time ground track for satellite NOAA 16 DEB.

In-orbit conjunctions

A list of the most updated potential collisions computed for object NOAA 16 DEB.

Target Orbit TCA Probability of collision Miss distance Type
MUBLCOM SSO 2025-04-20 14:05:08 0.0001405031 505.0 (m) PAYLOAD
PSLV R/B SSO 2024-12-18 15:45:47 0.0001008034 170.0 (m) ROCKET BODY

Associated space launch

The NOAA K, L and M POES satellites begin the fifth generation of improved environmental monitoring in support of NOAA missions. The instrument payload has significant improvements and additions/deletions. The instrument changes have effected the spacecraft subsystems and data formats.

NOAA 16 DEB was lifted into orbit during the mission ‘Titan II SLV | NOAA 16’, on board a Titan II SLV space rocket.

The launch took place on Sept. 21, 2000, 10:22 a.m. from Space Launch Complex 4W.

For more information about the launch, click the button.

Launch to space Titan II SLV | NOAA 16
Titan II SLV | NOAA 16

Agency: N/A

Status: Launch Successful

Launch date: Sept. 21, 2000, 10:22 a.m. UTC

Rocket: Titan II SLV

Launch pad: Space Launch Complex 4W

Location: Vandenberg SFB, CA, USA

...

Latest news about this satellite

There are no fresh news available about this satellite. Check back as we update our databases every day.


Newsletter sign-up

Weekly statistics, charts and insights to help you stay on top of the space industry.